Regional Weather Roundup
Issued by NWS

Home | Current Version | Previous Version | Graphics & Text | Print | Product List | Glossary On
Versions: 1 2 3 4 5 6 7 8 9 10 11 12 13 14 15 16 17 18 19 20 21 22 23 24 25 26 27 28 29 30 31 32 33 34 35 36 37 38 39 40 41 42 43 44 45 46 47 48 49 50
243
ASUS43 KDMX 200206
RWRIA

WEATHER ROUNDUP FOR IOWA
NATIONAL WEATHER SERVICE DES MOINES IA
900 PM CDT SAT AUG 19 2017

NOTE: "FAIR" INDICATES FEW OR NO CLOUDS BELOW 12,000 FEET WITH NO
SIGNIFICANT WEATHER AND/OR OBSTRUCTIONS TO VISIBILITY.

* - THESE STATIONS ARE NOT NWS STATIONS...THUS NOT UNDER NWS
QUALITY CONTROL.  THEY ALSO DO NOT REPORT WEATHER SUCH
AS PRECIPITATION OR FOG.

IAZ001>003-012>014-020>022-031>034-043>046-200300-
   NORTHWEST IOWA

CITY           SKY/WX    TMP DP  RH WIND       PRES   REMARKS
CARROLL *      CLOUDY    70  68  94 SE6       29.90R
CHEROKEE *     CLOUDY    73  68  84 SE5       29.88R
DENISON *      CLEAR     72  64  78 MISG      29.89S
LE MARS *      CLEAR     73  66  78 E7        29.86R
ORANGE CITY *  MOCLDY    73  68  83 SE6       29.88R
SHELDON *      PTCLDY    70  66  88 SE7       29.86S
SIOUX CITY     PTCLDY    73  68  84 SE8       29.85R
SPENCER        MOCLDY    73  65  75 S8        29.89R
STORM LAKE *   CLOUDY    72  64  78 SE7       29.90R
$$

IAZ055>058-069>071-079>083-090>094-200300-
   SOUTHWEST IOWA

CITY           SKY/WX    TMP DP  RH WIND       PRES   REMARKS
ATLANTIC *     PTCLDY    75  64  69 SE5       29.89S
AUDUBON *      PTCLDY    70  66  88 SE3       29.91R
CLARINDA *       N/A     73  63  68 CALM      29.92R
COUNCIL BLFS * CLEAR     75  66  73 SE8       29.88S
CRESTON *      CLEAR     72  63  73 E3        29.94R
HARLAN  *      CLEAR     72  68  88 S6        29.92S
LAMONI         CLEAR     81  55  40 S5        29.92R HX  81
RED OAK *      CLEAR     73  64  73 CALM      29.89R
SHENANDOAH *   CLEAR     73  64  73 SE5       29.89R
$$

IAZ047>049-059>061-072>074-084-200300-
   CENTRAL IOWA

CITY           SKY/WX    TMP DP  RH WIND       PRES   REMARKS
AMES           CLEAR     70  68  93 SE3       29.91R
ANKENY *       CLEAR     70  66  88 CALM      29.91R
BOONE *        CLEAR     70  66  88 SE6       29.90S
CHARITON *     CLEAR     75  61  60 SE5       29.92R
DES MOINES     PTCLDY    79  58  48 E6        29.90R HX  80
GRINNELL*      CLEAR     70  65  84 E3        29.94R
KNOXVILLE *    CLEAR     77  64  65 NE5       29.90S
MARSHALLTOWN   CLEAR     70  66  87 E7        29.92R
NEWTON *       CLEAR     72  66  83 E7        29.93R
PELLA *        CLEAR     75  65  71 E3        29.92R
PERRY *          N/A     69  67  92 E3        29.91R
$$

IAZ004>006-015-016-023>025-035-036-200300-
   NORTH CENTRAL IOWA

CITY           SKY/WX    TMP DP  RH WIND       PRES   REMARKS
ALGONA *       MOCLDY    72  66  83 SE7       29.91R
CLARION *      MOCLDY    70  68  94 SE8       29.92R
ESTHERVILLE    MOCLDY    68  66  93 SE6       29.89R
FORT DODGE *   PTCLDY    73  63  68 SE5       29.91R
MASON CITY     CLEAR     67  63  87 SE7       29.93S
FOREST CITY *    N/A     64  63  94 S5        29.92S
WEBSTER CITY * CLEAR     70  64  83 SE6       29.89S
IOWA FALLS *     N/A     68  65  91 SE5       29.93S
$$

IAZ007>011-017>019-026>030-037>042-050>054-066-200300-
   NORTHEAST IOWA

CITY           SKY/WX    TMP DP  RH WIND       PRES   REMARKS
CEDAR RAPIDS   CLEAR     67  64  90 E5        29.93R
CHARLES CITY * CLEAR     68  66  94 S3        29.94R
CLINTON *      CLEAR     70  63  78 SE6       29.96R
DECORAH *      PTCLDY    70  61  73 S5        29.94R
DUBUQUE        CLEAR     69  61  75 SE5       29.96R
MONTICELLO *   CLEAR     66  64  94 CALM      29.94R
OELWEIN *      PTCLDY    68  66  94 S3        29.95R
WATERLOO       CLEAR     69  62  78 CALM      29.92R
$$

IAZ064-065-067-068-078-200300-
   EAST CENTRAL IOWA

CITY           SKY/WX    TMP DP  RH WIND       PRES   REMARKS
DAVENPORT      CLEAR     69  62  78 E6        29.96S
IOWA CITY      CLEAR     74  64  71 SE5       29.94R
MT. PLEASANT * CLEAR     69  65  87 E3        29.93R
MUSCATINE *    CLEAR     70  64  83 CALM      29.94R
QUAD CITIES    CLEAR     69  63  81 E5        29.94R
$$

IAZ062-063-075>077-085>089-095>099-200300-
   SOUTHEAST IOWA

CITY           SKY/WX    TMP DP  RH WIND       PRES   REMARKS
BURLINGTON     CLEAR     75  67  76 E6        29.93R
FAIRFIELD *    CLEAR     72  64  78 E7        29.93R
FORT MADISON * CLEAR     72  68  88 E3        29.94R
KEOKUK *       CLEAR     75  68  78 SE8       29.92R
OSKALOOSA *      N/A     71  65  81 E7        29.92R
OTTUMWA        CLEAR     75  66  73 E7        29.92R
WASHINGTON *   CLEAR     68  66  94 E6        29.94R
$$

ABBREVIATIONS USED IN REMARKS
   TC - TEMPERATURES IN CELSIUS
  WCI - WIND CHILL INDEX
   HX - HEAT INDEX
  VSB - VISIBILITY
$$





USA.gov is the U.S. government's official web portal to all federal, state and local government web resources and services.